Погода в Журавках

Россия / Республика Крым     45°07′52″N   35°12′58″E
темп.,
°C
ветер,
м/с
пор.,
м/с
влажн.,
%
обл.,
%
осадки,
мм/ч
давл.,
гПа
погр.,
м
19 апреля, пн
пн1900:00+9ссв1193100 0.0 101632
03:00+10ю1191100 0.1 101526
06:00+9ссв1195100 0.1 101414
09:00+11ссз1189100 0.1 1014200
12:00+11с3388100 0.0 1014376
15:00+11ссв3385100 0.0 1014369
18:00+11всв2287100 0.0 1014195
21:00+10всв2391100 0.0 101351
20 апреля, вт
вт2000:00+10вюв4696100 1.3 1010191
03:00+10в2398100 6.0 1007103
06:00+10вюв4698100 8.9 1005251
09:00+12ююз458677 8.9 1004409
12:00+14юз677164 0.1 1002757
15:00+10з121586100 0.9 10061077
18:00+10з8128391 0.3 1009774
21:00+9з611855 0.4 1012302
21 апреля, ср
ср2100:00+8ююз348593 0.0 101498
03:00+9з1182100 0.0 101415
06:00+9з3482100 0.0 1015121
09:00+12з346854 0.0 1017444
12:00+15юв125685 0.1 10171313
15:00+15ююв445992 0.4 1017790
18:00+14з136493 1.3 1018542
21:00+11з338127 1.4 101939
22 апреля, чт
чт2200:00+9ююз12875 0.0 102020
03:00+9ююв22892 0.1 102023
06:00+8ююз12855 0.0 102020
09:00+13юв226755 0.0 1021388
12:00+15юв135754 0.4 10221105
15:00+16з245624 1.7 10221103
18:00+15зсз356313 0.9 1022249
21:00+11зюз23790 1.0 102320
23 апреля, пт
пт2300:00+10ю22810 0.0 102312
03:00+8ююз22790 0.0 102226
06:00+8ююз22793 0.0 102235
09:00+13ю23635 0.0 1022343
12:00+17ю56480 0.0 1022890
15:00+16ююв77490 0.0 1020766
18:00+14ююв69655 0.0 1020361
21:00+10ю5880100 0.0 1019150